NOAA 16 DEB

Satellite information

Favourite Embed

Satellite Type and Status

DEBRISIN ORBIT

Key statistics

Satellite NOAA 16 DEB at a glance.

Uptime

8998

Days in orbit

Revolutions

≈ 14.2

Per day

Orbit

SSO

Sun Synchronous Orbit

Inclination

98.7

Latest

Satellite identification and parameters

Extended collection of information and parameters for NOAA 16 DEB.

Object identification

Identified? True

Debris? True

Object name: NOAA 16 DEB

International designator: 2000-055SU

Object number (NORAD): 42400

Object ID (CCSDS): 42400

Country: UNITED STATES OF AMERICA (US)

Current information (Y/N): Y

RCS size: SMALL

Orbital parameters

Period: 101.22 minutes

Inclination: 98.6619 deg

SMA: 7194.548 km

Apoapsis: 834.272 km

Periapsis: 798.554 km

RAAN: 179.4656 deg

Eccentricy: 0.0024823

Argument of periapsis: 128.8495 deg

Mean anomaly: 231.4903 deg

Mean motion: 14.22648022 rev/day

Mean motion (dot): 0.0000331 rev/day2

B* drag term: 0.0014939 1/REarth

Two-line elements (TLE)

Creation date: May 11, 2025, 2:40 a.m.

Reference frame: TEME

Reference center: EARTH

Epoch: May 10, 2025, 10:58 p.m. UTC

TLE line 0: 0 NOAA 16 DEB

TLE line 1: 1 42400U 00055SU 25130.95709893 .00003310 00000-0 14939-2 0 9996

TLE line 2: 2 42400 98.6619 179.4656 0024823 128.8495 231.4903 14.22648022469377

Live tracking on map

Real-time ground track for satellite NOAA 16 DEB.

In-orbit conjunctions

A list of the most updated potential collisions computed for object NOAA 16 DEB.

Target Orbit TCA Probability of collision Miss distance Type
SL-16 DEB LEO 2024-11-15 23:35:16 0.000226354 582.0 (m) DEBRIS
SL-16 DEB LEO 2024-11-15 21:53:58 0.0006133059 303.0 (m) DEBRIS

Associated space launch

The NOAA K, L and M POES satellites begin the fifth generation of improved environmental monitoring in support of NOAA missions. The instrument payload has significant improvements and additions/deletions. The instrument changes have effected the spacecraft subsystems and data formats.

NOAA 16 DEB was lifted into orbit during the mission ‘Titan II SLV | NOAA 16’, on board a Titan II SLV space rocket.

The launch took place on Sept. 21, 2000, 10:22 a.m. from Space Launch Complex 4W.

For more information about the launch, click the button.

Launch to space Titan II SLV | NOAA 16
Titan II SLV | NOAA 16

Agency: N/A

Status: Launch Successful

Launch date: Sept. 21, 2000, 10:22 a.m. UTC

Rocket: Titan II SLV

Launch pad: Space Launch Complex 4W

Location: Vandenberg SFB, CA, USA

...

Latest news about this satellite

There are no fresh news available about this satellite. Check back as we update our databases every day.


Newsletter sign-up

Weekly statistics, charts and insights to help you stay on top of the space industry.